| time (UTC) | temp F | wind direction | speed MPH | gust MPH | rain 1hr in | rain 24hr in | rain mn in | humidity % | barometer mb |
| 20260504032526 | 46 | 161 | 5.0 | 0.0 | 0.00 | 0.00 | 0.00 | 58 | 1005.2 |
| 20260504032044 | 47 | 180 | 4.0 | 0.0 | 0.00 | 0.00 | 0.00 | 57 | 1005.3 |
| 20260504031558 | 49 | 180 | 5.0 | 0.0 | 0.00 | 0.00 | 0.00 | 54 | 1005.2 |
| 20260504031004 | 51 | 180 | 4.0 | 0.0 | 0.00 | 0.00 | 0.00 | 50 | 1005.2 |
| 20260504030521 | 54 | 187 | 3.0 | 0.0 | 0.00 | 0.00 | 0.00 | 45 | 1005.1 |
| 20260504030040 | 55 | 190 | 2.0 | 0.0 | 0.00 | 0.00 | 0.00 | 40 | 1005.1 |
| 20260504025559 | 56 | 13 | 2.0 | 0.0 | 0.00 | 0.00 | 0.00 | 40 | 1005.0 |
| 20260504025008 | 57 | 13 | 1.0 | 0.0 | 0.00 | 0.00 | 0.00 | 38 | 1005.0 |
| 20260504024523 | 58 | 13 | 0.0 | 0.0 | 0.00 | 0.00 | 0.00 | 38 | 1004.9 |
| 20260504024042 | 58 | 13 | 0.0 | 0.0 | 0.00 | 0.00 | 0.00 | 36 | 1004.9 |
| 20260504023555 | 59 | 13 | 1.0 | 0.0 | 0.00 | 0.00 | 0.00 | 36 | 1004.9 |
| 20260504023009 | 60 | 13 | 2.0 | 0.0 | 0.00 | 0.00 | 0.00 | 34 | 1004.9 |
| 20260504022525 | 60 | 13 | 2.0 | 0.0 | 0.00 | 0.00 | 0.00 | 34 | 1004.9 |
| 20260504022044 | 60 | 13 | 2.0 | 0.0 | 0.00 | 0.00 | 0.00 | 35 | 1004.7 |
| 20260504021600 | 61 | 13 | 2.0 | 0.0 | 0.00 | 0.00 | 0.00 | 34 | 1004.7 |
| 20260504021015 | 61 | 13 | 3.0 | 0.0 | 0.00 | 0.00 | 0.00 | 34 | 1004.6 |
| 20260504020536 | 62 | 13 | 4.0 | 0.0 | 0.00 | 0.00 | 0.00 | 33 | 1004.6 |
| 20260504020050 | 62 | 13 | 4.0 | 0.0 | 0.00 | 0.00 | 0.00 | 32 | 1004.6 |
| 20260504015506 | 63 | 13 | 4.0 | 0.0 | 0.00 | 0.00 | 0.00 | 29 | 1004.6 |
| 20260504015026 | 63 | 13 | 4.0 | 0.0 | 0.00 | 0.00 | 0.00 | 28 | 1004.7 |
| 20260504014546 | 64 | 13 | 4.0 | 0.0 | 0.00 | 0.00 | 0.00 | 28 | 1004.7 |
| 20260504014104 | 64 | 13 | 4.0 | 0.0 | 0.00 | 0.00 | 0.00 | 27 | 1004.7 |
| 20260504013519 | 65 | 15 | 4.0 | 0.0 | 0.00 | 0.00 | 0.00 | 26 | 1004.8 |
| 20260504013047 | 64 | 12 | 4.0 | 0.0 | 0.00 | 0.00 | 0.00 | 24 | 1004.9 |
| 20260504012554 | 64 | 24 | 3.0 | 0.0 | 0.00 | 0.00 | 0.00 | 27 | 1004.8 |
| 20260504012006 | 64 | 5 | 3.0 | 0.0 | 0.00 | 0.00 | 0.00 | 27 | 1005.0 |
| 20260504011526 | 64 | 5 | 4.0 | 0.0 | 0.00 | 0.00 | 0.00 | 26 | 1004.9 |
| 20260504011040 | 63 | 355 | 4.0 | 0.0 | 0.00 | 0.00 | 0.00 | 29 | 1005.0 |
| 20260504010503 | 62 | 355 | 5.0 | 0.0 | 0.00 | 0.00 | 0.00 | 31 | 1005.0 |
| 20260504010018 | 62 | 355 | 6.0 | 0.0 | 0.00 | 0.00 | 0.00 | 28 | 1005.1 |
| 20260504005535 | 63 | 355 | 7.0 | 0.0 | 0.00 | 0.00 | 0.00 | 26 | 1005.1 |
| 20260504005050 | 64 | 355 | 8.0 | 0.0 | 0.00 | 0.00 | 0.00 | 25 | 1005.1 |
| 20260504004502 | 65 | 350 | 10.0 | 0.0 | 0.00 | 0.00 | 0.00 | 25 | 1005.2 |
| 20260504004015 | 66 | 346 | 9.0 | 0.0 | 0.00 | 0.00 | 0.00 | 23 | 1005.2 |
| 20260504003534 | 66 | 331 | 8.0 | 0.0 | 0.00 | 0.00 | 0.00 | 25 | 1005.2 |
| 20260504003056 | 65 | 350 | 7.0 | 0.0 | 0.00 | 0.00 | 0.00 | 26 | 1005.3 |
| 20260504002512 | 64 | 16 | 6.0 | 0.0 | 0.00 | 0.00 | 0.00 | 24 | 1005.4 |
| 20260504002026 | 64 | 21 | 7.0 | 0.0 | 0.00 | 0.00 | 0.00 | 25 | 1005.5 |
| 20260504001548 | 64 | 342 | 8.0 | 0.0 | 0.00 | 0.00 | 0.00 | 25 | 1005.5 |
| 20260504001001 | 65 | 9 | 9.0 | 0.0 | 0.00 | 0.00 | 0.00 | 24 | 1005.5 |
| 20260504000516 | 66 | 344 | 9.0 | 0.0 | 0.00 | 0.00 | 0.00 | 22 | 1005.5 |
| 20260504000032 | 66 | 344 | 9.0 | 0.0 | 0.00 | 0.00 | 0.00 | 24 | 1005.5 |
| 20260503235544 | 66 | 355 | 7.0 | 0.0 | 0.00 | 0.00 | 0.00 | 23 | 1005.7 |
| 20260503235105 | 66 | 9 | 8.0 | 0.0 | 0.00 | 0.00 | 0.00 | 22 | 1005.7 |
| 20260503234516 | 65 | 329 | 9.0 | 0.0 | 0.00 | 0.00 | 0.00 | 23 | 1005.7 |
| 20260503234032 | 65 | 324 | 8.0 | 0.0 | 0.00 | 0.00 | 0.00 | 23 | 1005.7 |
| 20260503233548 | 65 | 320 | 7.0 | 0.0 | 0.00 | 0.00 | 0.00 | 23 | 1005.8 |
| 20260503233002 | 66 | 345 | 7.0 | 0.0 | 0.00 | 0.00 | 0.00 | 23 | 1005.7 |
| 20260503232520 | 66 | 321 | 9.0 | 0.0 | 0.00 | 0.00 | 0.00 | 23 | 1005.8 |
| 20260503232037 | 66 | 318 | 9.0 | 0.0 | 0.00 | 0.00 | 0.00 | 24 | 1005.9 |
| 20260503231552 | 65 | 303 | 9.0 | 0.0 | 0.00 | 0.00 | 0.00 | 24 | 1006.0 |
| 20260503231003 | 65 | 310 | 9.0 | 0.0 | 0.00 | 0.00 | 0.00 | 24 | 1006.0 |
| 20260503230524 | 65 | 323 | 9.0 | 0.0 | 0.00 | 0.00 | 0.00 | 25 | 1006.0 |
| 20260503230040 | 65 | 329 | 10.0 | 0.0 | 0.00 | 0.00 | 0.00 | 25 | 1006.1 |
| 20260503225554 | 65 | 337 | 10.0 | 0.0 | 0.00 | 0.00 | 0.00 | 24 | 1006.1 |
| 20260503225014 | 65 | 325 | 9.0 | 0.0 | 0.00 | 0.00 | 0.00 | 24 | 1006.1 |
| 20260503224533 | 65 | 316 | 9.0 | 0.0 | 0.00 | 0.00 | 0.00 | 24 | 1006.1 |
| 20260503224047 | 65 | 319 | 10.0 | 0.0 | 0.00 | 0.00 | 0.00 | 23 | 1006.2 |
| 20260503223609 | 65 | 337 | 10.0 | 0.0 | 0.00 | 0.00 | 0.00 | 24 | 1006.3 |
| 20260503223015 | 65 | 24 | 8.0 | 0.0 | 0.00 | 0.00 | 0.00 | 23 | 1006.3 |
| 20260503222530 | 66 | 5 | 8.0 | 0.0 | 0.00 | 0.00 | 0.00 | 24 | 1006.5 |
| 20260503222044 | 66 | 339 | 7.0 | 0.0 | 0.00 | 0.00 | 0.00 | 23 | 1006.5 |
| 20260503221603 | 66 | 344 | 10.0 | 0.0 | 0.00 | 0.00 | 0.00 | 24 | 1006.6 |
| 20260503221011 | 67 | 355 | 10.0 | 0.0 | 0.00 | 0.00 | 0.00 | 23 | 1006.8 |
| 20260503220527 | 66 | 9 | 9.0 | 0.0 | 0.00 | 0.00 | 0.00 | 26 | 1006.8 |
| 20260503220044 | 65 | 306 | 9.0 | 0.0 | 0.00 | 0.00 | 0.00 | 24 | 1006.9 |
| 20260503215559 | 65 | 286 | 9.0 | 0.0 | 0.00 | 0.00 | 0.00 | 25 | 1006.9 |
| 20260503215013 | 64 | 338 | 7.0 | 0.0 | 0.00 | 0.00 | 0.00 | 26 | 1006.9 |
| 20260503214530 | 64 | 19 | 7.0 | 0.0 | 0.00 | 0.00 | 0.00 | 26 | 1007.0 |
| 20260503214049 | 64 | 9 | 8.0 | 0.0 | 0.00 | 0.00 | 0.00 | 25 | 1007.1 |
| 20260503213506 | 65 | 331 | 6.0 | 0.0 | 0.00 | 0.00 | 0.00 | 24 | 1007.1 |
| 20260503213020 | 65 | 340 | 5.0 | 0.0 | 0.00 | 0.00 | 0.00 | 24 | 1007.3 |
| 20260503212536 | 65 | 326 | 7.0 | 0.0 | 0.00 | 0.00 | 0.00 | 24 | 1007.5 |
| 20260503212052 | 65 | 333 | 7.0 | 0.0 | 0.00 | 0.00 | 0.00 | 25 | 1007.5 |
| 20260503211506 | 65 | 340 | 6.0 | 0.0 | 0.00 | 0.00 | 0.00 | 27 | 1007.5 |
| 20260503211023 | 64 | 48 | 5.0 | 0.0 | 0.00 | 0.00 | 0.00 | 24 | 1007.3 |
| 20260503210541 | 64 | 44 | 6.0 | 0.0 | 0.00 | 0.00 | 0.00 | 25 | 1007.5 |
| 20260503210058 | 64 | 337 | 7.0 | 0.0 | 0.00 | 0.00 | 0.00 | 27 | 1007.4 |
| 20260503205513 | 64 | 355 | 7.0 | 0.0 | 0.00 | 0.00 | 0.00 | 26 | 1007.5 |
| 20260503205027 | 64 | 355 | 6.0 | 0.0 | 0.00 | 0.00 | 0.00 | 26 | 1007.7 |
| 20260503204545 | 64 | 344 | 5.0 | 0.0 | 0.00 | 0.00 | 0.00 | 26 | 1007.6 |
| 20260503204059 | 64 | 355 | 4.0 | 0.0 | 0.00 | 0.00 | 0.00 | 25 | 1007.7 |
| 20260503203509 | 64 | 47 | 3.0 | 0.0 | 0.00 | 0.00 | 0.00 | 27 | 1007.9 |
| 20260503203025 | 63 | 30 | 6.0 | 0.0 | 0.00 | 0.00 | 0.00 | 25 | 1008.0 |
| 20260503202542 | 63 | 33 | 7.0 | 0.0 | 0.00 | 0.00 | 0.00 | 26 | 1008.1 |
| 20260503202101 | 63 | 27 | 8.0 | 0.0 | 0.00 | 0.00 | 0.00 | 26 | 1008.2 |
| 20260503201514 | 64 | 350 | 6.0 | 0.0 | 0.00 | 0.00 | 0.00 | 25 | 1008.2 |
| 20260503201028 | 64 | 26 | 5.0 | 0.0 | 0.00 | 0.00 | 0.00 | 26 | 1008.2 |
| 20260503200544 | 65 | 355 | 3.0 | 0.0 | 0.00 | 0.00 | 0.00 | 27 | 1008.2 |
| 20260503200104 | 64 | 303 | 5.0 | 0.0 | 0.00 | 0.00 | 0.00 | 26 | 1008.2 |
| 20260503195510 | 64 | 342 | 8.0 | 0.0 | 0.00 | 0.00 | 0.00 | 26 | 1008.3 |
| 20260503195031 | 64 | 312 | 8.0 | 0.0 | 0.00 | 0.00 | 0.00 | 26 | 1008.4 |
| 20260503194544 | 64 | 321 | 7.0 | 0.0 | 0.00 | 0.00 | 0.00 | 28 | 1008.5 |
| 20260503194103 | 63 | 11 | 5.0 | 0.0 | 0.00 | 0.00 | 0.00 | 30 | 1008.5 |
| 20260503193513 | 63 | 351 | 7.0 | 0.0 | 0.00 | 0.00 | 0.00 | 29 | 1008.6 |
| 20260503193028 | 63 | 348 | 9.0 | 0.0 | 0.00 | 0.00 | 0.00 | 28 | 1008.7 |
| 20260503192542 | 63 | 302 | 9.0 | 0.0 | 0.00 | 0.00 | 0.00 | 29 | 1008.7 |
| 20260503192101 | 64 | 22 | 8.0 | 0.0 | 0.00 | 0.00 | 0.00 | 30 | 1008.8 |
| 20260503191527 | 64 | 346 | 4.0 | 0.0 | 0.00 | 0.00 | 0.00 | 30 | 1008.7 |
| 20260503191035 | 63 | 69 | 4.0 | 0.0 | 0.00 | 0.00 | 0.00 | 29 | 1008.8 |
| 20260503190552 | 63 | 132 | 5.0 | 0.0 | 0.00 | 0.00 | 0.00 | 30 | 1008.8 |
| 20260503190000 | 62 | 305 | 7.0 | 0.0 | 0.00 | 0.00 | 0.00 | 29 | 1008.9 |
| 20260503185514 | 63 | 9 | 9.0 | 0.0 | 0.00 | 0.00 | 0.00 | 29 | 1008.9 |
| 20260503185032 | 63 | 360 | 7.0 | 0.0 | 0.00 | 0.00 | 0.00 | 29 | 1008.9 |
| 20260503184547 | 63 | 333 | 6.0 | 0.0 | 0.00 | 0.00 | 0.00 | 29 | 1009.0 |
| 20260503184101 | 63 | 355 | 5.0 | 0.0 | 0.00 | 0.00 | 0.00 | 32 | 1009.0 |
| 20260503183508 | 63 | 5 | 5.0 | 0.0 | 0.00 | 0.00 | 0.00 | 31 | 1009.1 |
| 20260503183022 | 63 | 42 | 6.0 | 0.0 | 0.00 | 0.00 | 0.00 | 30 | 1009.1 |
| 20260503182537 | 62 | 24 | 6.0 | 0.0 | 0.00 | 0.00 | 0.00 | 31 | 1009.2 |
| 20260503182050 | 62 | 9 | 6.0 | 0.0 | 0.00 | 0.00 | 0.00 | 31 | 1009.3 |
| 20260503181605 | 62 | 9 | 6.0 | 0.0 | 0.00 | 0.00 | 0.00 | 31 | 1009.2 |
| 20260503181017 | 62 | 355 | 5.0 | 0.0 | 0.00 | 0.00 | 0.00 | 31 | 1009.4 |
| 20260503180536 | 62 | 48 | 4.0 | 0.0 | 0.00 | 0.00 | 0.00 | 34 | 1009.6 |
| 20260503180100 | 62 | 35 | 5.0 | 0.0 | 0.00 | 0.00 | 0.00 | 33 | 1009.6 |
| 20260503175606 | 62 | 65 | 6.0 | 0.0 | 0.00 | 0.00 | 0.00 | 32 | 1009.8 |
| 20260503175013 | 62 | 307 | 5.0 | 0.0 | 0.00 | 0.00 | 0.00 | 34 | 1009.9 |
| 20260503174534 | 61 | 345 | 5.0 | 0.0 | 0.00 | 0.00 | 0.00 | 34 | 1009.9 |
| 20260503174052 | 61 | 340 | 5.0 | 0.0 | 0.00 | 0.00 | 0.00 | 34 | 1010.0 |
| 20260503173604 | 61 | 316 | 6.0 | 0.0 | 0.00 | 0.00 | 0.00 | 34 | 1010.0 |
| 20260503173016 | 61 | 57 | 5.0 | 0.0 | 0.00 | 0.00 | 0.00 | 33 | 1010.0 |
| 20260503172532 | 60 | 46 | 4.0 | 0.0 | 0.00 | 0.00 | 0.00 | 33 | 1010.2 |
| 20260503172049 | 60 | 323 | 5.0 | 0.0 | 0.00 | 0.00 | 0.00 | 34 | 1010.2 |
| 20260503171502 | 60 | 350 | 4.0 | 0.0 | 0.00 | 0.00 | 0.00 | 33 | 1010.2 |
| 20260503171017 | 60 | 355 | 3.0 | 0.0 | 0.00 | 0.00 | 0.00 | 36 | 1010.3 |
| 20260503170531 | 59 | 33 | 3.0 | 0.0 | 0.00 | 0.00 | 0.00 | 35 | 1010.4 |
| 20260503160113 | 56 | 161 | 2.0 | 0.0 | 0.00 | 0.00 | 0.00 | 41 | 1011.0 |
| 20260503150504 | 51 | 190 | 8.0 | 0.0 | 0.00 | 0.00 | 0.00 | 47 | 1011.9 |
| 20260503131041 | 36 | 190 | 7.0 | 0.0 | 0.00 | 0.00 | 0.00 | 73 | 1012.3 |
| 20260503130559 | 35 | 175 | 6.0 | 0.0 | 0.00 | 0.00 | 0.00 | 74 | 1012.3 |
| 20260503110505 | 35 | 187 | 7.0 | 0.0 | 0.00 | 0.00 | 0.00 | 74 | 1012.3 |
| 20260503090512 | 35 | 185 | 7.0 | 0.0 | 0.00 | 0.00 | 0.00 | 75 | 1011.9 |
| 20260503081539 | 36 | 191 | 6.0 | 0.0 | 0.00 | 0.00 | 0.00 | 74 | 1011.9 |
| 20260503081058 | 36 | 188 | 6.0 | 0.0 | 0.00 | 0.00 | 0.00 | 74 | 1012.0 |
| 20260503080509 | 36 | 192 | 6.0 | 0.0 | 0.00 | 0.00 | 0.00 | 75 | 1012.0 |
| 20260503072521 | 35 | 188 | 5.0 | 0.0 | 0.00 | 0.00 | 0.00 | 77 | 1012.2 |
| 20260503072038 | 35 | 179 | 5.0 | 0.0 | 0.00 | 0.00 | 0.00 | 77 | 1012.0 |
| 20260503071556 | 35 | 194 | 4.0 | 0.0 | 0.00 | 0.00 | 0.00 | 76 | 1012.1 |
| 20260503071000 | 36 | 194 | 4.0 | 0.0 | 0.00 | 0.00 | 0.00 | 75 | 1012.1 |
| 20260503070518 | 36 | 194 | 4.0 | 0.0 | 0.00 | 0.00 | 0.00 | 75 | 1012.1 |
| 20260503055044 | 38 | 194 | 4.0 | 0.0 | 0.00 | 0.00 | 0.00 | 70 | 1011.8 |
| 20260503054621 | 39 | 194 | 4.0 | 0.0 | 0.00 | 0.00 | 0.00 | 68 | 1011.8 |
| 20260503054003 | 40 | 194 | 5.0 | 0.0 | 0.00 | 0.00 | 0.00 | 67 | 1011.8 |
| 20260503053518 | 41 | 194 | 5.0 | 0.0 | 0.00 | 0.00 | 0.00 | 66 | 1011.7 |
| 20260503053032 | 41 | 196 | 5.0 | 0.0 | 0.00 | 0.00 | 0.00 | 65 | 1011.7 |
| 20260503052549 | 41 | 192 | 6.0 | 0.0 | 0.00 | 0.00 | 0.00 | 65 | 1011.6 |
| 20260503052001 | 41 | 193 | 5.0 | 0.0 | 0.00 | 0.00 | 0.00 | 65 | 1011.4 |
| 20260503051520 | 41 | 196 | 4.0 | 0.0 | 0.00 | 0.00 | 0.00 | 65 | 1011.5 |
| 20260503051033 | 41 | 194 | 4.0 | 0.0 | 0.00 | 0.00 | 0.00 | 65 | 1011.4 |
| 20260503050545 | 42 | 194 | 5.0 | 0.0 | 0.00 | 0.00 | 0.00 | 64 | 1011.3 |
| 20260503050101 | 42 | 196 | 5.0 | 0.0 | 0.00 | 0.00 | 0.00 | 64 | 1011.6 |
| 20260503045516 | 42 | 189 | 5.0 | 0.0 | 0.00 | 0.00 | 0.00 | 64 | 1011.5 |
| 20260503045028 | 42 | 188 | 6.0 | 0.0 | 0.00 | 0.00 | 0.00 | 63 | 1011.7 |
| 20260503044543 | 43 | 184 | 6.0 | 0.0 | 0.00 | 0.00 | 0.00 | 62 | 1011.6 |
| 20260503044055 | 44 | 188 | 5.0 | 0.0 | 0.00 | 0.00 | 0.00 | 61 | 1011.5 |
| 20260503043502 | 45 | 188 | 6.0 | 0.0 | 0.00 | 0.00 | 0.00 | 58 | 1011.5 |
| 20260503043034 | 46 | 196 | 6.0 | 0.0 | 0.00 | 0.00 | 0.00 | 56 | 1011.4 |
| 20260503042535 | 46 | 206 | 6.0 | 0.0 | 0.00 | 0.00 | 0.00 | 55 | 1011.6 |
| 20260503042052 | 46 | 200 | 5.0 | 0.0 | 0.00 | 0.00 | 0.00 | 55 | 1011.6 |
| 20260503041508 | 46 | 202 | 5.0 | 0.0 | 0.00 | 0.00 | 0.00 | 56 | 1011.5 |
| 20260503041022 | 46 | 91 | 4.0 | 0.0 | 0.00 | 0.00 | 0.00 | 55 | 1011.4 |
| 20260503040541 | 46 | 91 | 4.0 | 0.0 | 0.00 | 0.00 | 0.00 | 55 | 1011.4 |
| 20260503040101 | 47 | 91 | 3.0 | 0.0 | 0.00 | 0.00 | 0.00 | 54 | 1011.3 |
| 20260503035506 | 48 | 91 | 2.0 | 0.0 | 0.00 | 0.00 | 0.00 | 52 | 1011.4 |
| 20260503035022 | 48 | 91 | 2.0 | 0.0 | 0.00 | 0.00 | 0.00 | 51 | 1011.3 |
| 20260503034543 | 49 | 91 | 2.0 | 0.0 | 0.00 | 0.00 | 0.00 | 50 | 1011.1 |
| 20260503034048 | 49 | 91 | 3.0 | 0.0 | 0.00 | 0.00 | 0.00 | 50 | 1011.0 |
| 20260503033603 | 49 | 91 | 4.0 | 0.0 | 0.00 | 0.00 | 0.00 | 49 | 1011.0 |
| 20260503033019 | 50 | 91 | 4.0 | 0.0 | 0.00 | 0.00 | 0.00 | 48 | 1011.0 |